Location: Unspecified
(44.4377°N, 88.0525°W)
Time: 10:22:00
(UTC-05:00)

Okean 3 - Pass Details

Date: 22 April 2019
Orbit: 576 x 602 km, 82.5° (Epoch: 23 May)

Event Time Altitude Azimuth Distance (km) Brightness Sun altitude
Exits shadow 02:40:31 21° 326° (NW) 1,331 5.4 -28.2°
Drops below altitude 10° 02:42:29 10° 347° (NNW) 1,924 6.6 -28.0°
Sets 02:44:55 0° 359° (N) 2,825 7.8 -27.8°
